Location: Cold Norton
(51.6667°N, 0.6667°E)
Time: 15:34:23
(UTC+00:00)

Cosmos 1869 - Pass Details

Date: 18 November 2025
Orbit: 453 x 480 km, 82.5° (Epoch: 12 December)

Event Time Altitude Azimuth Distance (km) Brightness Sun altitude
Rises 16:42:47 0° 157° (SSE) 2,486 6.7 -6.3°
Reaches altitude 10° 16:45:10 10° 142° (SE) 1,611 5.6 -6.6°
Maximum altitude 16:47:56 22° 89° (E) 1,050 4.2 -7.0°
Drops below altitude 10° 16:50:43 10° 37° (NE) 1,611 5.2 -7.4°
Enters shadow 16:52:15 - 26° (NNE) 2,164 5.9 -7.6°
